STARLINK-2291, 47862

Orbit data source: Space-Track

STARLINK-2291, 47862 is a payload satellite owned by SpaceX/Seattle (US) in LEO that was launched on Sun, 14 Mar 2021 UTC via an FALCON 9 launch vehicle from the Air Force Eastern Test Range (AFETR). Payload-class satellites include a variety of spacecraft equipped with specific instruments for various scientific and technological missions. These include communications satellites like Starlink; space stations such as the ISS; scientific satellites like the Hubble; Earth observation satellites from companies like Planet Labs, Umbra, and HawkEye 360; GPS; miniature CubeSats for education and research; and military/defense satellites.

Loading next visibility...
Identifier
47862, 2021-021C
Orbit
LEO
Country
Flag of USUS
Related business
Manufacturer
SpaceX/Seattle
Mission
Partially operational Commercial Communications
Bus & Motor
STARLINK, Unknown motor
Mass
260 kg wet, ~248 kg dry
Launch date (UTC)
2021-03-14 (5 years ago)
Launch vehicle
FALCON 9
Launch site
Air Force Eastern Test Range (AFETR)
Object type
Payload
Rocket body
Debris
Shape & HBR
Box + 1 Pan, 10.1 m
Radar Cross Section
13.562 m², Large (>1 m²)

Expand to show TLE details & history
Last TLE update: 2 days ago

TLE from 2 days ago
0 STARLINK-2291
1 47862U 21021C   26171.41668980  .01339054  00000-0  16246-1 0  9997
2 47862  53.1552 129.1756 0001821  77.4317 163.4173 15.57294614  5905
Epoch: 2026-06-20T10:00Z
TLE epoch observation values (Epoch: 2026-06-20T10:00:01.998Z)
Latitude
-44.53715°
Longitude
-62.30928°
Altitude
411.703 km
Speed
7.663 km/s
True Right ascension
23h 45m 19s
True Declination
-44° 21' 23"
Sunlit
Object was in daylight at epoch
Visualization orbit readout
Latitude
Unknown
Longitude
Unknown
Altitude
Unknown
Speed
Unknown
Apparent Right ascension
Unknown
Apparent Declination
Unknown
Sunlit
N/A
Visualization observer readout
Local Sidereal Time
21:26:10
Azimuth
Unknown
Elevation
Unknown
Doppler factor
Unknown
Orbital elements
Apogee altitude
396.984 km
Perigee altitude
394.517 km
Semi-major axis
6,773.888 km
Eccentricity
0.00018
Inclination
53.1552°
RAAN
129.1756°
Arg. of periapsis
77.4317°
True anomaly
163.42325°
Mean anomaly
163.4173°
Eccentric anomaly
163.42028°
Mean motion
3.89302 °/min
Orbital period
92.47 mins
BSTAR
0.016246
Loading maneuver chart data...
Computing Atmospheric mass density...

Documentation

Showing up to 5 results
|